Location: Hall+in+Tirol
(47.2830°N, 11.5170°E)
Time: 07:25:16
(UTC+01:00)

Amateur Radio Satellites - All Passes

Search period start: 22 December 2014 06:55
Search period end: 23 December 2014 06:55
Location: Hall+in+Tirol, 47.2830°N, 11.5170°E

Satellite Date Start Highest point End Downlink Frequencies (MHz)
Time Altitude Azimuth
SO-50 22 Dec 07:00:17 07:02:59 15° 251° (WSW) 07:05:40 436.795
Cubesat XI-IV 22 Dec 07:09:15 07:14:32 67° 289° (WNW) 07:19:48 437.490
VERMONT LUNAR 22 Dec 07:10:49 07:12:50 15° 202° (SSW) 07:14:50 437.305
GONETS M04 22 Dec 07:11:26 07:19:33 39° 292° (WNW) 07:27:43
PHONESAT 2.4 22 Dec 07:31:08 07:33:25 16° 201° (SSW) 07:35:42 2401.200-2431.200
CUTE-I 22 Dec 07:42:26 07:47:17 37° 295° (WNW) 07:52:08 437.470
JAS-2 22 Dec 07:47:20 07:49:10 12° 312° (NW) 07:50:57 435.910
CUBESAT XI-V 22 Dec 07:50:23 07:51:08 10° 274° (W) 07:51:53 437.345
SEEDS 22 Dec 08:00:52 08:01:51 11° 87° (E) 08:02:49 437.485
CUTE 1.7 + AOD 2 22 Dec 08:05:03 08:07:22 14° 89° (E) 08:09:40 437.475
O/OREOS (USA 219) 22 Dec 08:10:27 08:11:23 11° 40° (NE) 08:12:18 437.305
TIGRISAT 22 Dec 08:34:41 08:37:05 15° 58° (ENE) 08:39:31 435.000
CUSAT 1 22 Dec 08:36:18 08:39:14 19° 81° (E) 08:42:45 437.405
Oscar 11 22 Dec 08:46:38 08:48:39 13° 88° (E) 08:50:41 145.826/435.025
DUCHIFAT 1 22 Dec 08:47:13 08:48:49 12° 58° (ENE) 08:50:25 145.980
HO-68 22 Dec 08:48:05 08:54:56 46° 99° (E) 09:01:43 435.675
BRITE-PL 22 Dec 08:49:19 08:53:51 46° 99° (E) 08:58:44 437.365/2234.400
AAUSAT CUBESAT 2 22 Dec 08:50:19 08:53:55 26° 94° (E) 08:57:28 437.432
Cubesat XI-IV 22 Dec 08:51:42 08:53:39 12° 308° (NW) 08:55:36 437.490
UKube-1 22 Dec 08:56:44 08:58:07 11° 88° (E) 08:59:29 .
QB50P2 22 Dec 09:00:39 09:03:19 17° 61° (ENE) 09:05:59 145.880/145.840
UNISAT 6 22 Dec 09:03:05 09:06:45 26° 64° (ENE) 09:10:30 437.425
GOMX 1 22 Dec 09:08:28 09:13:07 52° 100° (E) 09:18:04 467.674
MaSat-1 22 Dec 09:08:28 09:10:39 45° 302° (WNW) 09:12:47 437.345
CANX-2 22 Dec 09:08:46 09:13:06 68° 102° (ESE) 09:17:23 2200.000
POLYITAN 1 22 Dec 09:09:33 09:12:37 20° 63° (ENE) 09:15:41 437.675
NANOSAT C BR1 22 Dec 09:10:26 09:13:29 20° 63° (ENE) 09:16:33 145.865
CUBEBUG 2 22 Dec 09:15:41 09:19:00 19° 91° (E) 09:22:20 437.445
ZACube-1 22 Dec 09:20:20 09:22:59 15° 89° (E) 09:25:38 437.345
QB50P1 22 Dec 09:24:32 09:28:04 27° 66° (ENE) 09:31:37 145.935-145.965
YUBILEINY 22 Dec 09:25:08 09:32:23 28° 62° (ENE) 09:39:34 435.215
COMPASS 1 22 Dec 09:26:19 09:30:36 70° 102° (ESE) 09:34:50 437.405
DOVE 4 22 Dec 09:26:58 09:31:42 59° 101° (E) 09:36:40 437.250
SEEDS 22 Dec 09:33:57 09:38:16 84° 285° (WNW) 09:42:33 437.485
DANDE 22 Dec 09:33:57 09:37:39 55° 94° (E) 09:42:40 436.750
DELFI C3 22 Dec 09:34:02 09:37:45 31° 96° (E) 09:41:25 145.870
ANTELSAT 22 Dec 09:34:24 09:38:40 51° 71° (ENE) 09:43:04 437.575/2403.000
CUTE 1.7 + AOD 2 22 Dec 09:39:27 09:43:44 64° 287° (WNW) 09:48:00 437.475
CINEMA 3 22 Dec 09:41:25 09:46:03 51° 99° (E) 09:50:49 145.822/145.860
FUNcube-1 22 Dec 09:45:43 09:49:33 26° 94° (E) 09:53:23 145.935
O/OREOS (USA 219) 22 Dec 09:47:20 09:51:48 58° 61° (ENE) 09:56:16 437.305
UWE-3 22 Dec 09:50:05 09:54:17 34° 96° (E) 09:58:31 435.000/436.395/437.385
POPSAT HIP 1 22 Dec 09:52:47 09:56:51 50° 71° (ENE) 10:00:57 437.405
DX 1 22 Dec 10:01:07 10:05:23 52° 101° (E) 10:09:38 434.975-435.025
HUMSAT D 22 Dec 10:08:40 10:12:19 26° 94° (E) 10:15:58 437.325/437.525
TIGRISAT 22 Dec 10:08:51 10:13:13 76° 257° (WSW) 10:17:45 435.000
AISAT 22 Dec 10:10:38 10:14:18 25° 94° (E) 10:17:59 437.250
BUGSAT 1 22 Dec 10:11:34 10:15:37 64° 73° (ENE) 10:19:38 437.445
CUSAT 1 22 Dec 10:17:43 10:21:36 46° 290° (WNW) 10:26:51 437.405
DUCHIFAT 1 22 Dec 10:19:51 10:24:03 85° 256° (WSW) 10:28:17 145.980
Oscar 11 22 Dec 10:20:58 10:25:20 72° 286° (WNW) 10:29:40 145.826/435.025
AAUSAT CUBESAT 2 22 Dec 10:25:48 10:29:37 33° 292° (WNW) 10:33:25 437.432
BRITE-PL 22 Dec 10:28:26 10:32:11 24° 295° (WNW) 10:36:09 437.365/2234.400
UKube-1 22 Dec 10:30:29 10:34:51 81° 286° (WNW) 10:39:10 .
QB50P2 22 Dec 10:34:39 10:38:48 58° 259° (W) 10:43:00 145.880/145.840
HO-68 22 Dec 10:35:59 10:42:36 42° 299° (WNW) 10:49:11 435.675
UNISAT 6 22 Dec 10:39:18 10:43:23 37° 263° (W) 10:47:36 437.425
POLYITAN 1 22 Dec 10:44:12 10:48:15 46° 261° (W) 10:52:21 437.675
NANOSAT C BR1 22 Dec 10:45:02 10:49:04 46° 261° (W) 10:53:09 145.865
CANX-2 22 Dec 10:46:01 10:48:32 15° 300° (WNW) 10:51:01 2200.000
GOMX 1 22 Dec 10:47:19 10:50:59 23° 296° (WNW) 10:54:48 467.674
CUBEBUG 2 22 Dec 10:51:28 10:56:00 56° 288° (WNW) 11:00:37 437.445
ZACube-1 22 Dec 10:55:16 10:59:47 67° 287° (WNW) 11:04:20 437.345
QB50P1 22 Dec 11:00:04 11:03:52 32° 264° (W) 11:07:41 145.935-145.965
VELOX 1 22 Dec 11:02:31 11:06:58 80° 104° (ESE) 11:11:23 145.980
COMPASS 1 22 Dec 11:03:28 11:05:48 15° 300° (WNW) 11:08:07 437.405
DOVE 4 22 Dec 11:05:39 11:09:07 21° 297° (WNW) 11:12:43 437.250
50 SAT 22 Dec 11:09:24 11:13:34 88° 104° (ESE) 11:17:44 437.505
DELFI C3 22 Dec 11:09:27 11:12:55 26° 294° (WNW) 11:16:22 145.870
ESTCUBE 1 22 Dec 11:10:49 11:15:06 42° 98° (E) 11:19:21 437.505/2401.250
SEEDS 22 Dec 11:12:14 11:13:22 11° 303° (WNW) 11:14:31 437.485
ANTELSAT 22 Dec 11:12:40 11:15:48 19° 269° (W) 11:19:00 437.575/2403.000
SPROUT 22 Dec 11:14:38 11:15:54 11° 87° (E) 11:17:09 437.525
RS-15 22 Dec 11:18:04 11:28:19 50° 113° (ESE) 11:38:37 29.354- 29.394
DANDE 22 Dec 11:19:08 11:21:57 17° 304° (NW) 11:25:18 436.750
CINEMA 3 22 Dec 11:19:17 11:22:58 23° 296° (WNW) 11:26:44 145.822/145.860
YUBILEINY 22 Dec 11:21:27 11:30:08 76° 265° (W) 11:38:47 435.215
FUNcube-1 22 Dec 11:21:47 11:25:58 38° 291° (WNW) 11:30:12 145.935
UWE-3 22 Dec 11:26:45 11:30:45 31° 293° (WNW) 11:34:49 435.000/436.395/437.385
O/OREOS (USA 219) 22 Dec 11:27:48 11:30:46 17° 260° (W) 11:33:43 437.305
POPSAT HIP 1 22 Dec 11:30:17 11:33:03 17° 269° (W) 11:35:51 437.405
DX 1 22 Dec 11:38:13 11:41:17 19° 299° (WNW) 11:44:20 434.975-435.025
HUMSAT D 22 Dec 11:44:14 11:48:11 35° 292° (WNW) 11:52:08 437.325/437.525
CUBEBUG 1 22 Dec 11:46:46 11:51:08 89° 284° (WNW) 11:55:28 437.445
AISAT 22 Dec 11:46:56 11:51:02 38° 292° (WNW) 11:55:08 437.250
Oscar 19 22 Dec 11:47:54 11:52:14 28° 63° (ENE) 11:56:37 437.125/150
BUGSAT 1 22 Dec 11:49:42 11:51:32 13° 271° (W) 11:53:22 437.445
BEESAT 3 22 Dec 11:55:25 11:56:00 10° 108° (ESE) 11:56:35 437.485
ITAMSAT 1 22 Dec 12:08:20 12:11:50 19° 58° (ENE) 12:15:19 435.822/435.867
UKube-1 22 Dec 12:09:10 12:10:16 11° 304° (NW) 12:11:22 .
Gurwin Techsat 1B 22 Dec 12:13:58 12:16:35 14° 54° (NE) 12:19:13 435.225
AO-7 22 Dec 12:21:02 12:24:01 12° 32° (NNE) 12:26:59 29.400- 29.500
HO-68 22 Dec 12:26:55 12:28:28 11° 321° (NW) 12:30:02 435.675
BEESAT 2 22 Dec 12:33:46 12:37:02 23° 114° (ESE) 12:40:21 435.950
SWISSCUBE 22 Dec 12:35:19 12:38:06 15° 89° (E) 12:40:52 437.505
ITUPSAT 1 22 Dec 12:36:40 12:39:13 14° 89° (E) 12:41:46 437.325
TISAT 1 22 Dec 12:39:33 12:43:48 87° 103° (ESE) 12:48:02 437.305
VELOX 1 22 Dec 12:40:42 12:42:57 14° 302° (WNW) 12:45:12 145.980
50 SAT 22 Dec 12:46:45 12:48:09 12° 302° (WNW) 12:49:32 437.505
ESTCUBE 1 22 Dec 12:48:10 12:51:46 24° 296° (WNW) 12:55:20 437.505/2401.250
SPROUT 22 Dec 12:48:14 12:52:33 81° 285° (WNW) 12:56:52 437.525
BEESAT 22 Dec 12:59:12 13:03:02 24° 93° (E) 13:06:51 436.000
YUBILEINY 22 Dec 13:20:25 13:25:23 17° 287° (WNW) 13:30:21 435.215
CUBEBUG 1 22 Dec 13:25:16 13:26:50 12° 303° (WNW) 13:28:23 437.445
M-CUBED/EXP-1 PRIME 22 Dec 13:25:54 13:27:48 13° 92° (E) 13:29:37 437.505
Oscar 19 22 Dec 13:26:28 13:31:23 45° 261° (W) 13:36:21 437.125/150
BEESAT 3 22 Dec 13:29:20 13:33:27 85° 126° (SE) 13:37:38 437.485
RS-15 22 Dec 13:29:44 13:40:29 60° 318° (NW) 13:51:27 29.354- 29.394
PCSat 22 Dec 13:30:00 13:35:14 51° 116° (ESE) 13:40:29 145.827
KKS-1 22 Dec 13:37:21 13:39:05 12° 88° (E) 13:40:48 437.445
ISS 22 Dec 13:37:45 13:40:55 43° 146° (SSE) 13:44:04 145.825
ITAMSAT 1 22 Dec 13:45:35 13:50:46 74° 257° (WSW) 13:55:58 435.822/435.867
AIST 2 22 Dec 13:45:53 13:50:02 55° 122° (ESE) 13:54:16 435.215
Gurwin Techsat 1B 22 Dec 13:50:25 13:55:43 78° 73° (ENE) 14:01:03 435.225
AO-7 22 Dec 14:06:59 14:14:31 40° 56° (NE) 14:22:05 29.400- 29.500
HORYU 2 22 Dec 14:08:27 14:12:43 46° 70° (ENE) 14:17:03 437.375
BEESAT 2 22 Dec 14:11:02 14:15:02 46° 313° (NW) 14:19:07 435.950
SWISSCUBE 22 Dec 14:11:43 14:16:29 70° 287° (WNW) 14:21:12 437.505
ITUPSAT 1 22 Dec 14:12:53 14:17:40 75° 287° (WNW) 14:22:25 437.325
TISAT 1 22 Dec 14:17:26 14:18:59 12° 302° (WNW) 14:20:32 437.305
SPROUT 22 Dec 14:26:58 14:27:55 11° 303° (WNW) 14:28:51 437.525
JAS-2 22 Dec 14:31:05 14:35:52 19° 55° (NE) 14:40:21 435.910
AUBIESAT-1 22 Dec 14:32:05 14:36:23 55° 105° (ESE) 14:40:17 437.475
BEESAT 22 Dec 14:36:32 14:41:05 45° 291° (WNW) 14:45:36 436.000
M-CUBED/EXP-1 PRIME 22 Dec 14:59:01 15:03:27 72° 292° (WNW) 15:07:27 437.505
STARS 22 Dec 15:04:19 15:08:43 60° 101° (ESE) 15:13:07 437.465
BEESAT 3 22 Dec 15:09:14 15:12:11 19° 326° (NNW) 15:15:10 437.485
KKS-1 22 Dec 15:11:48 15:16:18 80° 286° (WNW) 15:20:47 437.445
PCSat 22 Dec 15:14:01 15:18:53 33° 317° (NW) 15:23:46 145.827
ISS 22 Dec 15:14:16 15:17:30 49° 345° (NNW) 15:20:43 145.825
GONETS M04 22 Dec 15:20:14 15:27:58 33° 65° (ENE) 15:35:35
AIST 2 22 Dec 15:25:24 15:28:58 25° 322° (NW) 15:32:34 435.215
ITAMSAT 1 22 Dec 15:30:40 15:31:09 10° 275° (W) 15:31:37 435.822/435.867
Gurwin Techsat 1B 22 Dec 15:33:07 15:36:18 16° 272° (W) 15:39:30 435.225
RS-15 22 Dec 15:46:03 15:55:38 33° 350° (N) 16:05:27 29.354- 29.394
HORYU 2 22 Dec 15:46:15 15:49:38 21° 268° (W) 15:53:02 437.375
CUTE-I 22 Dec 15:50:54 15:53:27 14° 54° (NE) 15:55:59 437.470
SWISSCUBE 22 Dec 15:52:16 15:53:28 11° 306° (NW) 15:54:40 437.505
BEESAT 2 22 Dec 15:52:33 15:54:19 12° 335° (NNW) 15:56:06 435.950
ITUPSAT 1 22 Dec 15:53:07 15:54:44 12° 306° (NW) 15:56:20 437.325
AO-7 22 Dec 15:58:51 16:07:01 58° 257° (WSW) 16:15:17 29.400- 29.500
AUBIESAT-1 22 Dec 16:07:48 16:10:54 19° 306° (NW) 16:13:50 437.475
JAS-2 22 Dec 16:12:34 16:20:06 79° 73° (ENE) 16:26:53 435.910
AIST 1 22 Dec 16:30:36 16:34:59 83° 98° (E) 16:39:22
MOZHAYETS 4 22 Dec 16:34:07 16:38:11 29° 95° (E) 16:42:11
M-CUBED/EXP-1 PRIME 22 Dec 16:36:16 16:37:33 11° 312° (NW) 16:38:48 437.505
STARS 22 Dec 16:41:49 16:44:46 18° 299° (WNW) 16:47:43 437.465
KKS-1 22 Dec 16:50:48 16:52:12 11° 304° (NW) 16:53:35 437.445
ISS 22 Dec 16:51:22 16:54:29 38° 5° (N) 16:57:35 145.825
Cubesat XI-IV 22 Dec 16:55:01 17:00:00 42° 67° (ENE) 17:05:00 437.490
PCSat 22 Dec 17:02:09 17:04:04 12° 341° (NNW) 17:05:59 145.827
MaSat-1 22 Dec 17:02:21 17:04:22 24° 55° (NE) 17:06:28 437.345
GONETS M04 22 Dec 17:16:48 17:25:27 66° 267° (W) 17:34:00
CUTE-I 22 Dec 17:27:21 17:32:39 76° 73° (ENE) 17:37:59 437.470
HO-68 22 Dec 17:37:50 17:40:31 12° 41° (NE) 17:43:12 435.675
AO-7 22 Dec 17:59:17 18:01:40 11° 278° (W) 18:04:03 29.400- 29.500
JAS-2 22 Dec 17:59:58 18:05:39 23° 270° (W) 18:11:00 435.910
RS-15 22 Dec 18:01:38 18:11:51 39° 24° (NNE) 18:22:23 29.354- 29.394
CUBESAT XI-V 22 Dec 18:02:54 18:06:14 19° 91° (E) 18:09:31 437.345
MOZHAYETS 4 22 Dec 18:11:15 18:15:26 34° 293° (WNW) 18:19:35
AIST 1 22 Dec 18:11:43 18:13:17 12° 297° (WNW) 18:14:52
PRISM 22 Dec 18:13:40 18:17:39 43° 99° (E) 18:21:35 437.425
DANDE 22 Dec 18:27:36 18:32:51 20° 58° (ENE) 18:38:34 436.750
ISS 22 Dec 18:28:01 18:31:19 88° 24° (NNE) 18:34:36 145.825
Cubesat XI-IV 22 Dec 18:35:34 18:40:13 30° 265° (W) 18:44:53 437.490
MaSat-1 22 Dec 18:36:29 18:37:21 11° 250° (WSW) 18:38:13 437.345
SEEDS 22 Dec 18:56:16 18:58:13 13° 59° (ENE) 19:00:12 437.485
STRAND 1 22 Dec 18:57:56 19:02:56 52° 100° (E) 19:07:53 437.568
CUTE 1.7 + AOD 2 22 Dec 19:01:27 19:04:09 17° 61° (ENE) 19:06:53 437.475
CUSAT 1 22 Dec 19:08:44 19:15:43 37° 68° (ENE) 19:23:25 437.405
CUTE-I 22 Dec 19:10:02 19:13:19 16° 271° (W) 19:16:37 437.470
BEESAT 2 22 Dec 19:13:15 19:14:49 12° 24° (NNE) 19:16:23 435.950
GONETS M04 22 Dec 19:16:32 19:20:25 14° 290° (WNW) 19:24:17
HO-68 22 Dec 19:19:46 19:26:34 48° 63° (ENE) 19:33:23 435.675
SO-50 22 Dec 19:38:32 19:40:37 13° 108° (ESE) 19:42:44 436.795
CUBESAT XI-V 22 Dec 19:39:30 19:43:59 52° 289° (WNW) 19:48:26 437.345
Oscar 11 22 Dec 19:44:35 19:47:19 17° 61° (ENE) 19:50:03 145.826/435.025
AAUSAT CUBESAT 2 22 Dec 19:44:47 19:48:22 28° 66° (ENE) 19:52:00 437.432
PRISM 22 Dec 19:49:49 19:52:55 21° 297° (WNW) 19:56:00 437.425
UKube-1 22 Dec 19:54:28 19:57:12 17° 60° (ENE) 19:59:56 .
BRITE-PL 22 Dec 20:04:10 20:08:17 71° 74° (ENE) 20:12:28 437.365/2234.400
CANX-2 22 Dec 20:04:47 20:09:03 72° 74° (ENE) 20:13:22 2200.000
ISS 22 Dec 20:05:14 20:07:32 18° 223° (SW) 20:09:48 145.825
BEESAT 3 22 Dec 20:08:37 20:12:03 24° 38° (NE) 20:15:28 437.485
DANDE 22 Dec 20:09:47 20:17:26 73° 77° (ENE) 20:26:07 436.750
RS-15 22 Dec 20:14:38 20:25:55 86° 53° (NE) 20:37:42 29.354- 29.394
CUBEBUG 2 22 Dec 20:17:45 20:20:59 22° 63° (ENE) 20:24:17 437.445
ZACube-1 22 Dec 20:20:06 20:22:53 17° 61° (ENE) 20:25:44 437.345
GOMX 1 22 Dec 20:20:32 20:24:40 75° 75° (ENE) 20:28:54 467.674
COMPASS 1 22 Dec 20:20:52 20:25:04 72° 74° (ENE) 20:29:20 437.405
DELFI C3 22 Dec 20:25:42 20:29:21 31° 68° (ENE) 20:33:02 145.870
AIST 2 22 Dec 20:27:04 20:30:14 19° 34° (NNE) 20:33:22 435.215
SEEDS 22 Dec 20:29:11 20:33:26 80° 257° (WSW) 20:37:45 437.485
VELOX 1 22 Dec 20:29:32 20:31:50 14° 58° (ENE) 20:34:09 145.980
50 SAT 22 Dec 20:29:48 20:30:06 10° 57° (ENE) 20:30:24 437.505
PCSat 22 Dec 20:31:53 20:35:55 21° 34° (NE) 20:39:55 145.827
CUTE 1.7 + AOD 2 22 Dec 20:35:25 20:39:38 60° 259° (W) 20:43:55 437.475
DOVE 4 22 Dec 20:36:30 20:40:39 82° 75° (ENE) 20:44:56 437.250
STRAND 1 22 Dec 20:37:45 20:41:49 25° 299° (WNW) 20:45:51 437.568
FUNcube-1 22 Dec 20:45:10 20:48:48 29° 66° (ENE) 20:52:31 145.935
CINEMA 3 22 Dec 20:46:51 20:50:58 63° 73° (ENE) 20:55:16 145.822/145.860
BEESAT 2 22 Dec 20:50:07 20:54:09 42° 46° (NE) 20:58:08 435.950
UWE-3 22 Dec 20:50:48 20:54:43 38° 69° (ENE) 20:58:44 435.000/436.395/437.385
CUSAT 1 22 Dec 20:51:33 20:59:09 62° 265° (W) 21:07:30 437.405
DX 1 22 Dec 20:59:45 21:04:04 70° 73° (ENE) 21:08:24 434.975-435.025
HUMSAT D 22 Dec 21:04:16 21:07:47 27° 66° (ENE) 21:11:23 437.325/437.525
HO-68 22 Dec 21:07:45 21:14:23 40° 263° (W) 21:21:05 435.675
AISAT 22 Dec 21:11:53 21:15:52 34° 67° (ENE) 21:19:51 437.250
CUBEBUG 1 22 Dec 21:12:13 21:14:36 15° 59° (ENE) 21:16:59 437.445
SO-50 22 Dec 21:15:50 21:20:24 90° 307° (NW) 21:25:09 436.795
Oscar 11 22 Dec 21:18:44 21:23:01 62° 259° (W) 21:27:22 145.826/435.025
AAUSAT CUBESAT 2 22 Dec 21:20:12 21:23:58 31° 264° (W) 21:27:46 437.432
UKube-1 22 Dec 21:28:37 21:32:54 62° 258° (WSW) 21:37:13 .
CANX-2 22 Dec 21:43:40 21:45:30 13° 272° (W) 21:47:22 2200.000
BRITE-PL 22 Dec 21:46:05 21:47:24 11° 273° (W) 21:48:43 437.365/2234.400
BEESAT 3 22 Dec 21:46:26 21:50:33 56° 238° (WSW) 21:54:35 437.485
CUBEBUG 2 22 Dec 21:53:26 21:57:26 42° 262° (W) 22:01:34 437.445
DANDE 22 Dec 21:53:59 22:00:30 31° 273° (W) 22:07:39 436.750
ZACube-1 22 Dec 21:54:43 21:58:51 55° 260° (W) 22:03:06 437.345
TIGRISAT 22 Dec 21:58:17 22:01:42 20° 91° (E) 22:05:06 435.000
COMPASS 1 22 Dec 21:59:33 22:01:19 12° 272° (W) 22:03:04 437.405
50 SAT 22 Dec 22:00:35 22:04:36 85° 75° (ENE) 22:08:42 437.505
DELFI C3 22 Dec 22:01:10 22:04:38 26° 266° (W) 22:08:09 145.870
TISAT 1 22 Dec 22:02:21 22:04:06 12° 58° (ENE) 22:05:50 437.305
GOMX 1 22 Dec 22:02:24 22:03:26 11° 273° (W) 22:04:28 467.674
VELOX 1 22 Dec 22:03:25 22:07:50 78° 257° (WSW) 22:12:17 145.980
DUCHIFAT 1 22 Dec 22:03:44 22:05:39 13° 89° (E) 22:07:34 145.980
AIST 2 22 Dec 22:05:05 22:09:25 84° 234° (SW) 22:13:40 435.215
SPROUT 22 Dec 22:11:53 22:14:12 15° 60° (ENE) 22:16:32 437.525
ESTCUBE 1 22 Dec 22:13:31 22:17:58 57° 72° (ENE) 22:22:25 437.505/2401.250
PCSat 22 Dec 22:14:43 22:20:11 81° 56° (NE) 22:25:36 145.827
QB50P2 22 Dec 22:17:58 22:20:59 19° 92° (E) 22:24:00 145.880/145.840
FUNcube-1 22 Dec 22:21:23 22:25:06 30° 265° (W) 22:28:55 145.935
CINEMA 3 22 Dec 22:26:35 22:28:42 14° 272° (W) 22:30:52 145.822/145.860
POLYITAN 1 22 Dec 22:27:16 22:30:42 23° 94° (E) 22:34:07 437.675
NANOSAT C BR1 22 Dec 22:27:37 22:31:00 23° 93° (E) 22:34:22 145.865
RS-15 22 Dec 22:27:54 22:37:06 31° 256° (WSW) 22:46:39 29.354- 29.394
UNISAT 6 22 Dec 22:27:55 22:32:18 37° 97° (E) 22:36:41 437.425
UWE-3 22 Dec 22:28:05 22:31:25 23° 267° (W) 22:34:50 435.000/436.395/437.385
BEESAT 2 22 Dec 22:28:44 22:32:14 26° 245° (WSW) 22:35:40 435.950
YUBILEINY 22 Dec 22:31:31 22:38:25 27° 80° (E) 22:45:17 435.215
CUSAT 1 22 Dec 22:37:13 22:41:01 14° 282° (WNW) 22:44:58 437.405
DX 1 22 Dec 22:38:42 22:40:48 13° 271° (W) 22:42:54 434.975-435.025
HUMSAT D 22 Dec 22:39:50 22:43:31 31° 264° (W) 22:47:17 437.325/437.525
QB50P1 22 Dec 22:42:06 22:45:56 31° 96° (E) 22:49:45 145.935-145.965
CUBEBUG 1 22 Dec 22:46:05 22:50:27 72° 257° (WSW) 22:54:48 437.445
AISAT 22 Dec 22:48:45 22:52:31 27° 265° (W) 22:56:20 437.250
SO-50 22 Dec 22:58:06 23:01:38 21° 329° (NNW) 23:05:14 436.795
ANTELSAT 22 Dec 22:59:52 23:04:37 75° 103° (ESE) 23:09:21 437.575/2403.000
POPSAT HIP 1 22 Dec 23:10:49 23:15:04 62° 101° (ESE) 23:19:19 437.405
BUGSAT 1 22 Dec 23:26:20 23:30:24 73° 103° (ESE) 23:34:29 437.445
TIGRISAT 22 Dec 23:34:09 23:38:45 54° 289° (WNW) 23:43:21 435.000
TISAT 1 22 Dec 23:35:06 23:39:18 82° 256° (WSW) 23:43:32 437.305
DUCHIFAT 1 22 Dec 23:37:44 23:41:59 70° 286° (WNW) 23:46:14 145.980
SWISSCUBE 22 Dec 23:44:44 23:48:41 26° 63° (ENE) 23:52:39 437.505
SPROUT 22 Dec 23:45:30 23:49:46 71° 258° (WSW) 23:54:04 437.525
ITUPSAT 1 22 Dec 23:46:12 23:50:05 25° 63° (ENE) 23:53:59 437.325
AIST 2 22 Dec 23:46:21 23:47:17 11° 252° (WSW) 23:48:13 435.215
AUBIESAT-1 22 Dec 23:50:02 23:53:33 20° 55° (NE) 23:57:02 437.475
ESTCUBE 1 22 Dec 23:52:13 23:55:12 17° 269° (W) 23:58:12 437.505/2401.250
QB50P2 22 Dec 23:53:03 23:57:10 48° 289° (WNW) 00:01:17 145.880/145.840
PCSat 22 Dec 23:59:29 00:02:55 17° 255° (WSW) 00:06:20 145.827
POLYITAN 1 23 Dec 00:02:47 00:06:46 39° 291° (WNW) 00:10:46 437.675
O/OREOS (USA 219) 23 Dec 00:03:00 00:07:03 35° 107° (ESE) 00:11:07 437.305
NANOSAT C BR1 23 Dec 00:03:03 00:07:00 39° 291° (WNW) 00:10:58 145.865
UNISAT 6 23 Dec 00:04:55 00:08:58 29° 295° (WNW) 00:13:02 437.425
BEESAT 23 Dec 00:08:40 00:13:06 39° 67° (ENE) 00:17:33 436.000
M-CUBED/EXP-1 PRIME 23 Dec 00:16:12 00:20:36 34° 61° (ENE) 00:24:59 437.505
QB50P1 23 Dec 00:18:06 00:21:45 28° 294° (WNW) 00:25:24 145.935-145.965
YUBILEINY 23 Dec 00:25:39 00:34:22 74° 281° (WNW) 00:43:07 435.215
STARS 23 Dec 00:32:07 00:33:09 11° 56° (NE) 00:34:10 437.465
ANTELSAT 23 Dec 00:37:58 00:40:51 16° 301° (WNW) 00:43:45 437.575/2403.000
KKS-1 23 Dec 00:38:25 00:41:21 18° 60° (ENE) 00:44:18 437.445
SO-50 23 Dec 00:43:36 00:44:02 10° 353° (N) 00:44:28 436.795
POPSAT HIP 1 23 Dec 00:47:55 00:50:31 16° 299° (WNW) 00:53:07 437.405
BUGSAT 1 23 Dec 01:03:32 01:05:22 13° 301° (WNW) 01:07:14 437.445
SWISSCUBE 23 Dec 01:21:47 01:26:21 43° 261° (W) 01:30:56 437.505
ITUPSAT 1 23 Dec 01:23:08 01:27:44 45° 261° (W) 01:32:22 437.325
AUBIESAT-1 23 Dec 01:23:09 01:28:00 70° 253° (WSW) 01:32:53 437.475
Oscar 19 23 Dec 01:34:31 01:39:36 51° 100° (E) 01:44:39 437.125/150
O/OREOS (USA 219) 23 Dec 01:42:35 01:46:30 29° 306° (NW) 01:50:26 437.305
BEESAT 23 Dec 01:46:58 01:51:03 28° 265° (W) 01:55:10 436.000
M-CUBED/EXP-1 PRIME 23 Dec 01:50:59 01:55:30 37° 258° (WSW) 02:00:03 437.505
ITAMSAT 1 23 Dec 01:55:33 02:00:07 31° 95° (E) 02:04:40 435.822/435.867
Gurwin Techsat 1B 23 Dec 02:04:00 02:08:18 25° 92° (E) 02:12:35 435.225
STARS 23 Dec 02:04:29 02:08:51 78° 74° (ENE) 02:13:16 437.465
KKS-1 23 Dec 02:13:12 02:17:34 60° 259° (WSW) 02:21:59 437.445
SO-50 23 Dec 02:24:34 02:26:46 13° 18° (NNE) 02:29:00 436.795
YUBILEINY 23 Dec 02:27:11 02:32:56 19° 306° (NW) 02:38:43 435.215
AIST 1 23 Dec 02:35:05 02:38:48 28° 72° (ENE) 02:42:28
Oscar 19 23 Dec 03:14:26 03:18:39 26° 298° (WNW) 03:22:51 437.125/150
VERMONT LUNAR 23 Dec 03:15:07 03:17:51 21° 166° (SSE) 03:20:36 437.305
HORYU 2 23 Dec 03:33:14 03:37:44 61° 102° (ESE) 03:42:12 437.375
ITAMSAT 1 23 Dec 03:34:54 03:39:42 40° 294° (WNW) 03:44:29 435.822/435.867
MOZHAYETS 4 23 Dec 03:39:04 03:43:24 40° 69° (ENE) 03:47:45
PHONESAT 2.4 23 Dec 03:40:11 03:43:01 22° 166° (SSE) 03:45:52 2401.200-2431.200
Gurwin Techsat 1B 23 Dec 03:43:25 03:48:34 51° 291° (WNW) 03:53:41 435.225
STARS 23 Dec 03:44:14 03:45:54 12° 272° (W) 03:47:34 437.465
AO-7 23 Dec 03:56:42 04:04:33 42° 98° (E) 04:12:19 29.400- 29.500
SO-50 23 Dec 04:04:13 04:08:43 36° 41° (NE) 04:13:15 436.795
AIST 1 23 Dec 04:12:44 04:16:26 29° 270° (W) 04:20:06
GONETS M04 23 Dec 04:26:03 04:33:32 33° 82° (E) 04:41:01
STRAND 1 23 Dec 04:40:21 04:43:32 17° 57° (ENE) 04:46:43 437.568
VERMONT LUNAR 23 Dec 04:52:35 04:55:37 27° 183° (S) 04:58:38 437.305
JAS-2 23 Dec 05:04:43 05:10:12 48° 98° (E) 05:15:14 435.910
PRISM 23 Dec 05:07:16 05:11:21 50° 71° (ENE) 05:15:27 437.425
CUBESAT XI-V 23 Dec 05:09:22 05:13:19 28° 65° (ENE) 05:17:15 437.345
Cubesat XI-IV 23 Dec 05:10:55 05:13:07 12° 86° (E) 05:15:18 437.490
HORYU 2 23 Dec 05:10:56 05:13:57 18° 300° (WNW) 05:16:58 437.375
MOZHAYETS 4 23 Dec 05:16:53 05:20:45 26° 267° (W) 05:24:39
PHONESAT 2.4 23 Dec 05:18:01 05:21:09 28° 183° (S) 05:24:17 2401.200-2431.200
CUTE-I 23 Dec 05:41:55 05:46:08 24° 92° (E) 05:50:20 437.470
SO-50 23 Dec 05:44:45 05:49:23 43° 241° (WSW) 05:54:01 436.795
AO-7 23 Dec 05:49:29 05:57:32 54° 299° (WNW) 06:05:33 29.400- 29.500
STRAND 1 23 Dec 06:16:59 06:22:06 81° 256° (WSW) 06:27:15 437.568
GONETS M04 23 Dec 06:21:02 06:29:47 64° 284° (WNW) 06:38:35
VERMONT LUNAR 23 Dec 06:31:02 06:33:18 16° 200° (SSW) 06:35:34 437.305
PRISM 23 Dec 06:44:19 06:47:10 17° 268° (W) 06:50:01 437.425
CUBESAT XI-V 23 Dec 06:46:18 06:50:38 37° 263° (W) 06:54:58 437.345
